Time,TemperatureF,DewpointF,PressureIn,WindDirection,WindDirectionDegrees,WindSpeedMPH,WindSpeedGustMPH,Humidity,HourlyPrecipIn,Conditions,Clouds,dailyrainin,SolarRadiationWatts/m^2,SoftwareType,DateUTC
2013-08-08 00:04:00,64.8,64.2,30.08,SE,134,1.0,1.0,98,0.00,,,0.00,0,Wunderground v.1.15,2013-08-08 04:04:00,
2013-08-08 00:09:00,64.8,64.2,30.07,ESE,116,1.0,1.0,98,0.00,,,0.00,0,Wunderground v.1.15,2013-08-08 04:09:00,
2013-08-08 00:14:00,64.8,64.2,30.07,SE,126,1.0,1.0,98,0.00,,,0.00,0,Wunderground v.1.15,2013-08-08 04:14:00,
2013-08-08 00:24:00,64.8,64.2,30.07,SSE,147,2.0,2.0,98,0.00,,,0.00,0,Wunderground v.1.15,2013-08-08 04:24:00,
2013-08-08 00:29:00,64.8,64.2,30.07,SE,140,2.0,5.0,98,0.00,,,0.01,0,Wunderground v.1.15,2013-08-08 04:29:00,
2013-08-08 00:34:00,64.8,64.2,30.06,South,169,1.0,1.0,98,0.00,,,0.01,0,Wunderground v.1.15,2013-08-08 04:34:00,
2013-08-08 00:39:00,64.8,64.2,30.06,SSE,159,1.0,1.0,98,0.00,,,0.01,0,Wunderground v.1.15,2013-08-08 04:39:00,
2013-08-08 00:44:00,64.8,64.5,30.07,South,169,1.0,1.0,99,0.00,,,0.01,0,Wunderground v.1.15,2013-08-08 04:44:00,
2013-08-08 00:54:00,64.8,64.5,30.07,SE,128,1.0,1.0,99,0.00,,,0.01,0,Wunderground v.1.15,2013-08-08 04:54:00,
2013-08-08 00:59:00,64.8,64.5,30.07,East,98,1.0,1.0,99,0.00,,,0.01,0,Wunderground v.1.15,2013-08-08 04:59:00,
2013-08-08 01:09:00,64.9,64.6,30.06,SSE,157,1.0,3.0,99,0.00,,,0.01,0,Wunderground v.1.15,2013-08-08 05:09:00,
2013-08-08 01:14:00,64.9,64.6,30.06,SE,126,1.0,1.0,99,0.00,,,0.01,0,Wunderground v.1.15,2013-08-08 05:14:00,
2013-08-08 01:19:00,64.9,64.6,30.06,SE,144,2.0,2.0,99,0.00,,,0.01,0,Wunderground v.1.15,2013-08-08 05:19:00,
2013-08-08 01:24:00,64.9,64.6,30.06,SE,126,2.0,2.0,99,0.00,,,0.01,0,Wunderground v.1.15,2013-08-08 05:24:00,
2013-08-08 01:34:00,65.0,64.7,30.06,SSW,192,1.0,1.0,99,0.00,,,0.01,0,Wunderground v.1.15,2013-08-08 05:34:00,
2013-08-08 01:44:00,65.0,64.7,30.06,SE,125,1.0,2.0,99,0.00,,,0.01,0,Wunderground v.1.15,2013-08-08 05:44:00,
2013-08-08 01:49:00,65.0,64.7,30.05,SE,136,1.0,2.0,99,0.00,,,0.01,0,Wunderground v.1.15,2013-08-08 05:49:00,
2013-08-08 01:59:00,65.1,64.8,30.05,NE,47,1.0,2.0,99,0.00,,,0.01,0,Wunderground v.1.15,2013-08-08 05:59:00,
2013-08-08 02:04:00,65.1,64.8,30.05,SSE,154,1.0,3.0,99,0.00,,,0.01,0,Wunderground v.1.15,2013-08-08 06:04:00,
2013-08-08 02:09:00,65.1,64.8,30.05,SSW,194,1.0,3.0,99,0.00,,,0.01,0,Wunderground v.1.15,2013-08-08 06:09:00,
2013-08-08 02:14:00,65.2,64.9,30.05,East,80,2.0,2.0,99,0.00,,,0.01,0,Wunderground v.1.15,2013-08-08 06:14:00,
2013-08-08 02:19:00,65.2,64.9,30.04,East,92,2.0,2.0,99,0.00,,,0.01,0,Wunderground v.1.15,2013-08-08 06:19:00,
2013-08-08 02:24:00,65.2,64.9,30.05,ESE,104,2.0,2.0,99,0.00,,,0.01,0,Wunderground v.1.15,2013-08-08 06:24:00,
2013-08-08 02:29:00,65.2,64.9,30.05,ESE,118,2.0,2.0,99,0.00,,,0.01,0,Wunderground v.1.15,2013-08-08 06:29:00,
2013-08-08 02:39:00,65.3,65.0,30.05,East,96,1.0,2.0,99,0.00,,,0.02,0,Wunderground v.1.15,2013-08-08 06:39:00,
2013-08-08 02:44:00,65.3,65.0,30.05,SSE,151,1.0,2.0,99,0.40,,,0.06,0,Wunderground v.1.15,2013-08-08 06:44:00,
2013-08-08 02:49:00,65.2,64.9,30.05,South,184,1.0,2.0,99,0.13,,,0.07,0,Wunderground v.1.15,2013-08-08 06:49:00,
2013-08-08 02:59:00,65.2,64.9,30.04,SSE,161,2.0,3.0,99,0.15,,,0.12,0,Wunderground v.1.15,2013-08-08 06:59:00,
2013-08-08 03:04:00,65.2,64.9,30.04,South,174,2.0,2.0,99,0.06,,,0.12,0,Wunderground v.1.15,2013-08-08 07:04:00,
2013-08-08 03:14:00,65.2,64.9,30.04,East,82,2.0,2.0,99,0.00,,,0.12,0,Wunderground v.1.15,2013-08-08 07:14:00,
2013-08-08 03:24:00,65.2,64.9,30.04,East,95,1.0,1.0,99,0.00,,,0.12,0,Wunderground v.1.15,2013-08-08 07:24:00,
2013-08-08 03:29:00,65.2,64.9,30.04,SW,226,1.0,1.0,99,0.00,,,0.12,0,Wunderground v.1.15,2013-08-08 07:29:00,
2013-08-08 03:34:00,65.2,64.9,30.04,SW,214,2.0,2.0,99,0.00,,,0.12,0,Wunderground v.1.15,2013-08-08 07:34:00,
2013-08-08 03:39:00,65.2,64.9,30.04,SW,221,2.0,2.0,99,0.00,,,0.12,0,Wunderground v.1.15,2013-08-08 07:39:00,
2013-08-08 03:44:00,65.2,64.9,30.04,ENE,73,2.0,2.0,99,0.00,,,0.12,0,Wunderground v.1.15,2013-08-08 07:44:00,
2013-08-08 03:54:00,65.2,64.9,30.04,South,182,1.0,1.0,99,0.00,,,0.12,0,Wunderground v.1.15,2013-08-08 07:54:00,
2013-08-08 03:59:00,65.2,64.9,30.04,SSW,209,1.0,1.0,99,0.00,,,0.12,0,Wunderground v.1.15,2013-08-08 07:59:00,
2013-08-08 04:09:00,65.2,64.9,30.04,ESE,104,1.0,3.0,99,0.00,,,0.13,0,Wunderground v.1.15,2013-08-08 08:09:00,
2013-08-08 04:14:00,65.2,64.9,30.04,SSE,165,1.0,1.0,99,0.00,,,0.13,0,Wunderground v.1.15,2013-08-08 08:14:00,
2013-08-08 04:24:00,65.2,64.9,30.03,ESE,119,2.0,2.0,99,0.00,,,0.13,0,Wunderground v.1.15,2013-08-08 08:24:00,
2013-08-08 04:34:00,65.2,64.9,30.03,SE,128,1.0,1.0,99,0.00,,,0.14,0,Wunderground v.1.15,2013-08-08 08:34:00,
2013-08-08 04:39:00,65.3,65.0,30.03,ESE,123,1.0,1.0,99,0.00,,,0.14,0,Wunderground v.1.15,2013-08-08 08:39:00,
2013-08-08 04:49:00,65.3,65.0,30.03,South,169,1.0,1.0,99,0.00,,,0.14,0,Wunderground v.1.15,2013-08-08 08:49:00,
2013-08-08 04:54:00,65.4,65.1,30.03,SW,234,1.0,3.0,99,0.00,,,0.14,0,Wunderground v.1.15,2013-08-08 08:54:00,
2013-08-08 04:59:00,65.4,65.4,30.03,SE,136,1.0,3.0,100,0.00,,,0.14,0,Wunderground v.1.15,2013-08-08 08:59:00,
2013-08-08 05:04:00,65.4,65.4,30.02,SE,140,1.0,1.0,100,0.00,,,0.14,0,Wunderground v.1.15,2013-08-08 09:04:00,
2013-08-08 05:14:00,65.5,65.5,30.02,SSW,210,1.0,2.0,100,0.00,,,0.14,0,Wunderground v.1.15,2013-08-08 09:14:00,
2013-08-08 05:24:00,65.6,65.6,30.02,NE,35,1.0,1.0,100,0.00,,,0.14,0,Wunderground v.1.15,2013-08-08 09:24:00,
2013-08-08 05:29:00,65.6,65.6,30.02,South,175,1.0,1.0,100,0.00,,,0.14,0,Wunderground v.1.15,2013-08-08 09:29:00,
2013-08-08 05:34:00,65.6,65.6,30.03,SSE,153,1.0,1.0,100,0.00,,,0.14,0,Wunderground v.1.15,2013-08-08 09:34:00,
2013-08-08 05:44:00,65.7,65.7,30.03,East,89,1.0,1.0,100,0.00,,,0.14,0,Wunderground v.1.15,2013-08-08 09:44:00,
2013-08-08 05:49:00,65.7,65.7,30.03,East,100,1.0,1.0,100,0.00,,,0.14,0,Wunderground v.1.15,2013-08-08 09:49:00,
2013-08-08 05:59:00,65.7,65.7,30.03,SSE,159,0.0,0.0,100,0.00,,,0.14,0,Wunderground v.1.15,2013-08-08 09:59:00,
2013-08-08 06:04:00,65.7,65.7,30.04,SSE,159,0.0,0.0,100,0.00,,,0.14,0,Wunderground v.1.15,2013-08-08 10:04:00,
2013-08-08 06:09:00,65.8,65.8,30.04,SE,145,0.0,0.0,100,0.00,,,0.14,0,Wunderground v.1.15,2013-08-08 10:09:00,
2013-08-08 06:14:00,65.8,65.8,30.04,SE,131,1.0,1.0,100,0.00,,,0.14,0,Wunderground v.1.15,2013-08-08 10:14:00,
2013-08-08 06:19:00,65.9,65.9,30.04,NW,319,1.0,1.0,100,0.00,,,0.14,0,Wunderground v.1.15,2013-08-08 10:19:00,
2013-08-08 06:29:00,66.0,66.0,30.04,SSW,206,1.0,1.0,100,0.00,,,0.14,0,Wunderground v.1.15,2013-08-08 10:29:00,
2013-08-08 06:34:00,66.0,66.0,30.04,South,189,1.0,1.0,100,0.00,,,0.14,5,Wunderground v.1.15,2013-08-08 10:34:00,
2013-08-08 06:39:00,66.0,66.0,30.04,ESE,111,0.0,2.0,100,0.00,,,0.14,5,Wunderground v.1.15,2013-08-08 10:39:00,
2013-08-08 06:44:00,66.0,66.0,30.04,SSW,202,0.0,1.0,100,0.00,,,0.14,7,Wunderground v.1.15,2013-08-08 10:44:00,
2013-08-08 06:54:00,66.1,66.1,30.04,South,185,0.0,0.0,100,0.00,,,0.14,12,Wunderground v.1.15,2013-08-08 10:54:00,
2013-08-08 06:59:00,66.1,66.1,30.04,East,88,0.0,2.0,100,0.00,,,0.14,18,Wunderground v.1.15,2013-08-08 10:59:00,
2013-08-08 07:04:00,66.1,66.1,30.05,South,182,1.0,1.0,100,0.00,,,0.14,19,Wunderground v.1.15,2013-08-08 11:04:00,
2013-08-08 07:09:00,66.2,66.2,30.04,SE,146,1.0,1.0,100,0.00,,,0.14,26,Wunderground v.1.15,2013-08-08 11:09:00,
2013-08-08 07:19:00,66.3,66.3,30.04,SSW,207,1.0,1.0,100,0.00,,,0.14,51,Wunderground v.1.15,2013-08-08 11:19:00,
2013-08-08 07:24:00,66.5,66.5,30.04,SSW,192,0.0,0.0,100,0.00,,,0.14,33,Wunderground v.1.15,2013-08-08 11:24:00,
2013-08-08 07:29:00,66.5,66.5,30.04,SSW,213,0.0,0.0,100,0.00,,,0.14,35,Wunderground v.1.15,2013-08-08 11:29:00,
2013-08-08 07:39:00,66.5,66.5,30.04,ESE,122,1.0,2.0,100,0.00,,,0.14,30,Wunderground v.1.15,2013-08-08 11:39:00,